KD2GO Weather Reports


Display with metric or nautical units.
time (UTC)temp
F
wind
direction
speed
MPH
gust
MPH
rain 1hr
in
rain 24hr
in
rain mn
in
humidity
%
barometer
mb
20260505004458 62 324 1.0 5.0 0.00 0.00 0.00 52 1009.5
20260505001458 63 335 1.0 3.0 0.00 0.00 0.00 50 1009.4
20260504235958 64 335 2.0 6.0 0.00 0.00 0.00 47 1009.3
20260504234458 65 25 1.0 4.0 0.00 0.00 0.00 48 1009.2
20260504232959 66 316 3.0 9.0 0.00 0.00 0.00 45 1009.0
20260504231457 67 307 3.0 7.0 0.00 0.00 0.00 45 1008.9
20260504224500 68 304 4.0 12.0 0.00 0.00 0.00 42 1008.8
20260504221459 70 310 3.0 10.0 0.00 0.00 0.00 41 1008.8
20260504215958 71 338 2.0 8.0 0.00 0.00 0.00 41 1008.8
20260504214458 70 298 2.0 5.0 0.00 0.00 0.00 42 1008.9
20260504212958 70 341 5.0 13.0 0.00 0.00 0.00 41 1008.9
20260504211458 71 326 4.0 10.0 0.00 0.00 0.00 38 1009.0
20260504210000 69 275 5.0 10.0 0.00 0.00 0.00 40 1009.1
20260504204458 71 288 5.0 12.0 0.00 0.00 0.00 39 1009.3
20260504202959 71 340 5.0 16.0 0.00 0.00 0.00 40 1009.2
20260504195958 70 263 5.0 11.0 0.00 0.00 0.00 39 1009.4
20260504190000 69 327 6.0 16.0 0.00 0.00 0.00 38 1009.9
20260504184458 68 306 6.0 20.0 0.00 0.00 0.00 40 1010.0
20260504182958 68 298 5.0 15.0 0.00 0.00 0.00 40 1010.1
20260504181458 68 359 4.0 13.0 0.00 0.00 0.00 41 1010.4
20260504175959 68 117 5.0 13.0 0.00 0.00 0.00 41 1010.7
20260504174458 67 281 6.0 16.0 0.00 0.00 0.00 38 1010.8
20260504172959 67 264 6.0 13.0 0.00 0.00 0.00 39 1011.0
20260504171458 66 314 6.0 12.0 0.00 0.00 0.00 40 1011.1
20260504081456 44 285 0.0 0.0 0.00 0.00 0.00 63 1013.4
20260504050000 46 309 0.0 1.0 0.00 0.00 0.00 58 1013.2
20260504044500 46 309 0.0 1.0 0.00 0.00 0.00 59 1013.1
20260504043000 46 259 1.0 3.0 0.00 0.00 0.00 58 1013.1
20260504041500 47 135 1.0 3.0 0.00 0.00 0.00 57 1013.0
20260504040004 47 271 1.0 4.0 0.00 0.00 0.00 57 1012.7
20260504034500 47 259 1.0 4.0 0.00 0.00 0.00 55 1012.6
20260504031501 50 293 1.0 4.0 0.00 0.00 0.00 52 1012.5
20260504025959 50 295 2.0 5.0 0.00 0.00 0.00 51 1012.4
20260504024459 50 326 3.0 6.0 0.00 0.00 0.00 51 1012.4
20260504022959 50 304 2.0 5.0 0.00 0.00 0.00 50 1012.4
20260504021459 50 290 2.0 5.0 0.00 0.00 0.00 50 1012.3
20260504015959 51 295 2.0 4.0 0.00 0.00 0.00 49 1012.4
20260504014458 51 304 3.0 6.0 0.00 0.00 0.00 48 1012.3
20260504012959 51 295 3.0 7.0 0.00 0.00 0.00 48 1012.3
20260504011459 51 302 2.0 5.0 0.00 0.00 0.00 49 1012.1